White Plains, CT

5:13 PM EDT on September 22, 2019 (GMT -0400)
Westchester County

Weather History for KHPN - July, 2019

Change the Weather History Date:

Sunday, July 14, 2019

  Actual Average Record
Temperature  
Mean Temperature 80 °F -  
Max Temperature 88 °F 80 °F 93 °F (1997)
Min Temperature 72 °F 62 °F 59 °F (1999)
Cooling Degree Days 14    
Growing Degree Days 30 (Base 50)    
Moisture  
Dew Point 60 °F    
Average Humidity 54    
Maximum Humidity 76    
Minimum Humidity 33    
Precipitation  
Precipitation 0.00 in - - ()
Sea Level Pressure  
Sea Level Pressure 29.91 in    
Wind  
Wind Speed 7 mph (WNW)    
Max Wind Speed 17 mph    
Max Gust Speed 24 mph    
Visibility 10 miles    
Events      
Averages and records for this station are not official NWS values.
T = Trace of Precipitation, MM = Missing Value Source: NWS Daily Summary

Daily Weather History Graph

Daily Weather History Graph

Search for Another Location

Airport or City:

Astronomy

Jul. 14, 2019 Rise Set
Actual Time 5:34 AM EDT 8:26 PM EDT
Civil Twilight 5:01 AM EDT 8:59 PM EDT
Nautical Twilight 4:20 AM EDT 9:40 PM EDT
Astronomical Twilight 3:32 AM EDT 10:27 PM EDT
Moon 6:46 PM EDT (7/14) 3:33 AM EDT (7/14)
Length of Visible Light 15h 57m
Length of Day
14h 52m
Waxing Gibbous, 95% of the Moon is Illuminated
Jul 14
Waxing Gibbous
Jul 16
Full
Jul 24
Last Quarter
Jul 31
New
Aug 7
First Quarter

Hourly Weather History & Observations

Time (EDT) Temp. Heat Index Dew Point Humidity Pressure Visibility Wind Dir Wind Speed Gust Speed Precip Events Conditions
12:56 AM 75.0 °F - 63.0 °F 66% 29.89 in 10.0 mi West 4.6 mph - N/A   Clear
1:56 AM 72.0 °F - 64.0 °F 76% 29.89 in 10.0 mi West 3.5 mph - N/A   Clear
2:56 AM 73.0 °F - 63.0 °F 71% 29.88 in 10.0 mi Calm Calm - N/A   Clear
3:56 AM 73.0 °F - 63.0 °F 71% 29.88 in 10.0 mi West 4.6 mph - N/A   Clear
4:56 AM 73.0 °F - 63.0 °F 71% 29.89 in 10.0 mi West 3.5 mph - N/A   Clear
5:56 AM 72.0 °F - 63.0 °F 73% 29.89 in 10.0 mi WNW 3.5 mph - N/A   Clear
6:56 AM 73.9 °F - 63.0 °F 68% 29.90 in 10.0 mi West 4.6 mph - N/A   Clear
7:56 AM 77.0 °F - 64.0 °F 64% 29.91 in 10.0 mi Variable 4.6 mph - N/A   Clear
8:56 AM 80.1 °F 81.7 °F 64.0 °F 58% 29.91 in 10.0 mi WNW 6.9 mph - N/A   Clear
9:56 AM 82.0 °F 83.8 °F 64.9 °F 56% 29.91 in 10.0 mi WNW 12.7 mph - N/A   Clear
10:56 AM 84.0 °F 85.8 °F 64.9 °F 53% 29.91 in 10.0 mi WNW 10.4 mph - N/A   Partly Cloudy
11:56 AM 84.9 °F 85.9 °F 63.0 °F 48% 29.91 in 10.0 mi WNW 16.1 mph - N/A   Scattered Clouds
12:56 PM 86.0 °F 86.8 °F 63.0 °F 46% 29.91 in 10.0 mi WNW 16.1 mph 24.2 mph N/A   Scattered Clouds
1:56 PM 86.0 °F 85.7 °F 60.1 °F 41% 29.90 in 10.0 mi WNW 12.7 mph - N/A   Scattered Clouds
2:56 PM 87.1 °F 86.5 °F 59.0 °F 39% 29.89 in 10.0 mi WNW 17.3 mph 21.9 mph N/A   Scattered Clouds
3:56 PM 87.1 °F 85.3 °F 55.0 °F 33% 29.89 in 10.0 mi NW 15.0 mph 21.9 mph N/A   Partly Cloudy
4:56 PM 87.1 °F 85.7 °F 55.9 °F 35% 29.90 in 10.0 mi NW 17.3 mph - N/A   Partly Cloudy
5:56 PM 86.0 °F 84.2 °F 54.0 °F 33% 29.91 in 10.0 mi WNW 12.7 mph - N/A   Partly Cloudy
6:56 PM 84.0 °F 83.0 °F 55.9 °F 38% 29.91 in 10.0 mi NW 12.7 mph - N/A   Partly Cloudy
7:56 PM 81.0 °F 81.1 °F 57.9 °F 45% 29.93 in 10.0 mi NW 10.4 mph - N/A   Partly Cloudy
8:56 PM 79.0 °F - 57.9 °F 48% 29.94 in 10.0 mi WNW 9.2 mph - N/A   Clear
9:56 PM 78.1 °F - 55.9 °F 46% 29.96 in 10.0 mi NW 10.4 mph - N/A   Clear
10:56 PM 73.9 °F - 57.0 °F 55% 29.97 in 10.0 mi NW 10.4 mph - N/A   Clear
11:56 PM 72.0 °F - 55.9 °F 57% 29.99 in 10.0 mi NNW 8.1 mph - N/A   Clear